sat.trackr.live / text

‹ back to catalog

STARLINK-6307

NORAD 56529 · 2023-065AC

PAYLOAD ACTIVE UNKNOWN

§ Identity

Operator
Country
US
Launch date
2023-05-14
Launch site
AFETR
Launch vehicle
Mass (kg)
RCS (m²)

Purposes: comms

External: N2YO · Heavens-Above · Gunter

§ Orbital elements

Epoch: 2026-05-24T10:46:39.567648Z

Period
94.37 min
Inclination
43.0019°
Eccentricity
0.0001353
Mean motion
15.25907201 rev/d
Perigee alt
487.1 km
Apogee alt
489.0 km
Semi-major
6,866.2 km
B*
7.3975e-5
RAAN
133.5395°
Arg perigee
283.9368°
Mean anomaly
76.1332°
Rev number
16,831

§ Raw data

STARLINK-63071 56529U 23065AC  26144.44906907  .00001678  00000+0  73975-4 0  99952 56529  43.0019 133.5395 0001353 283.9368  76.1332 15.25907201168319

JSON: /api/v1/satellites/56529 · /tle

For live sub-satellite position, see the globe view (requires WebGL).

§ Visibility from observer

Set your observer location to see the next 7 days of passes ≥ 10°. The values pass through the URL so the page stays shareable.

No JS? Fill the form by hand. The geolocation button needs JavaScript.